NOZ1972 LPPR-ENGM

Flight info

Callsign NOZ1972
Flight time N/A
Altitude 34000
Route TURON P600 ASDEB DCT KORUL DCT DOLUR DCT UNFIT DCT INFEC DCT KISWO DCT AVTIC DCT ANJAK N38 NOKIN UP17 POL UP18 LEHOC DCT LAMRO DCT NIVUN DCT INDOP DCT PIPEX M609 RIPAM
Aircraft B738/M-SDE2E3FGHIRWXY/LB1

Departure

Time N/A
Airport Francisco de Sá Carneiro Airport (LPPR)

Arrival

Time 2026-05-06 21:38
Airport Oslo-Gardermoen International Airport (ENGM)
Time Latitude Longitude Altitude Speed Heading
2026-05-06 19:02 44.62258 -7.06984 34020 ft 478 kts 26°
2026-05-06 19:02 44.68213 -7.02797 34018 ft 478 kts 26°
2026-05-06 19:03 44.74169 -6.98598 34019 ft 478 kts 26°
2026-05-06 19:03 44.80118 -6.94396 34026 ft 478 kts 26°
2026-05-06 19:04 44.86175 -6.90744 34015 ft 476 kts 14°
2026-05-06 19:04 44.92608 -6.88492 34020 ft 476 kts 12°
2026-05-06 19:05 44.99046 -6.86250 34028 ft 476 kts 13°
2026-05-06 19:05 45.05467 -6.83928 34022 ft 476 kts 13°
2026-05-06 19:06 45.11879 -6.81562 34021 ft 476 kts 13°
2026-05-06 19:06 45.18286 -6.79183 34024 ft 476 kts 13°
2026-05-06 19:07 45.24695 -6.76799 34022 ft 476 kts 13°
2026-05-06 19:07 45.31095 -6.74415 34021 ft 476 kts 14°
2026-05-06 19:08 45.37463 -6.72039 34021 ft 475 kts 14°
2026-05-06 19:08 45.43870 -6.69643 34021 ft 475 kts 14°
2026-05-06 19:09 45.50280 -6.67240 34022 ft 475 kts 14°
2026-05-06 19:09 45.56679 -6.64835 34022 ft 475 kts 14°
2026-05-06 19:10 45.63046 -6.62436 34026 ft 475 kts 14°
2026-05-06 19:10 45.69440 -6.60022 34022 ft 475 kts 14°
2026-05-06 19:11 45.75832 -6.57603 34030 ft 474 kts 14°
2026-05-06 19:11 45.82212 -6.55183 34029 ft 474 kts 14°
2026-05-06 19:12 45.88605 -6.52752 34030 ft 474 kts 14°
2026-05-06 19:12 45.94981 -6.50322 34030 ft 474 kts 14°
2026-05-06 19:13 46.01326 -6.47897 34033 ft 474 kts 14°
2026-05-06 19:13 46.07715 -6.45450 34031 ft 474 kts 14°
2026-05-06 19:14 46.14098 -6.43000 34026 ft 474 kts 14°
2026-05-06 19:14 46.20467 -6.40549 34038 ft 474 kts 14°
2026-05-06 19:15 46.26850 -6.38086 34035 ft 474 kts 14°
2026-05-06 19:15 46.33204 -6.35629 34024 ft 472 kts 14°
2026-05-06 19:16 46.39520 -6.33181 34038 ft 472 kts 14°
2026-05-06 19:16 46.45877 -6.30711 34027 ft 472 kts 14°
2026-05-06 19:17 46.52227 -6.28238 34023 ft 473 kts 14°
2026-05-06 19:17 46.58585 -6.25756 34025 ft 473 kts 14°
2026-05-06 19:18 46.64940 -6.23269 34029 ft 473 kts 14°
2026-05-06 19:18 46.71267 -6.20786 34027 ft 473 kts 14°
2026-05-06 19:19 46.77620 -6.18288 34023 ft 473 kts 14°
2026-05-06 19:19 46.83980 -6.15780 34025 ft 474 kts 14°
2026-05-06 19:20 46.90358 -6.13259 34028 ft 474 kts 14°
2026-05-06 19:20 46.96726 -6.10736 34019 ft 472 kts 14°
2026-05-06 19:21 47.03066 -6.08218 34027 ft 471 kts 14°
2026-05-06 19:21 47.09401 -6.05696 34028 ft 472 kts 14°
2026-05-06 19:22 47.15706 -6.03180 34030 ft 472 kts 14°
2026-05-06 19:22 47.22054 -6.00639 34021 ft 472 kts 14°
2026-05-06 19:23 47.28401 -5.98093 34026 ft 473 kts 14°
2026-05-06 19:23 47.34750 -5.95541 34024 ft 473 kts 14°
2026-05-06 19:24 47.41097 -5.92982 34028 ft 473 kts 14°
2026-05-06 19:24 47.47411 -5.90430 34032 ft 473 kts 14°
2026-05-06 19:25 47.53767 -5.87855 34027 ft 474 kts 14°
2026-05-06 19:25 47.60121 -5.85274 34027 ft 473 kts 14°
2026-05-06 19:26 47.66463 -5.82692 34024 ft 471 kts 14°
2026-05-06 19:26 47.72783 -5.80112 34024 ft 471 kts 14°
2026-05-06 19:27 47.78054 -5.77955 34022 ft 471 kts 14°
2026-05-06 19:27 47.85396 -5.74944 34025 ft 471 kts 14°
2026-05-06 19:28 47.90681 -5.72770 34028 ft 471 kts 14°
2026-05-06 19:28 47.97011 -5.70161 34024 ft 471 kts 14°
2026-05-06 19:29 48.03281 -5.67570 34025 ft 471 kts 14°
2026-05-06 19:29 48.09592 -5.64956 34034 ft 471 kts 14°
2026-05-06 19:30 48.15914 -5.62330 34021 ft 471 kts 14°
2026-05-06 19:30 48.22230 -5.59700 34026 ft 471 kts 14°
2026-05-06 19:31 48.28547 -5.57063 34022 ft 471 kts 14°
2026-05-06 19:31 48.38018 -5.53096 34017 ft 471 kts 14°
2026-05-06 19:32 48.44325 -5.50446 34019 ft 471 kts 14°
2026-05-06 19:32 48.50634 -5.47789 34026 ft 470 kts 14°
2026-05-06 19:33 48.56906 -5.45140 34022 ft 470 kts 14°
2026-05-06 19:33 48.63244 -5.42456 34017 ft 470 kts 14°
2026-05-06 19:34 48.69505 -5.39798 34023 ft 470 kts 14°
2026-05-06 19:34 48.75813 -5.37113 34021 ft 470 kts 14°
2026-05-06 19:35 48.82107 -5.34427 34019 ft 470 kts 14°
2026-05-06 19:35 48.88416 -5.31728 34017 ft 470 kts 14°
2026-05-06 19:36 48.94683 -5.29039 34024 ft 470 kts 14°
2026-05-06 19:36 49.00988 -5.26327 34018 ft 470 kts 14°
2026-05-06 19:37 49.07291 -5.23609 34009 ft 470 kts 14°
2026-05-06 19:37 49.13583 -5.20888 34012 ft 470 kts 14°
2026-05-06 19:38 49.19829 -5.18180 34020 ft 469 kts 14°
2026-05-06 19:38 49.26115 -5.15448 34012 ft 470 kts 14°
2026-05-06 19:39 49.32416 -5.12701 34017 ft 470 kts 14°
2026-05-06 19:39 49.38701 -5.09954 34017 ft 470 kts 14°
2026-05-06 19:40 49.44992 -5.07198 34017 ft 470 kts 13°
2026-05-06 19:40 49.51309 -5.04483 34011 ft 470 kts 12°
2026-05-06 19:41 49.57637 -5.02164 34016 ft 470 kts 11°
2026-05-06 19:41 49.64015 -4.99910 34028 ft 470 kts 11°
2026-05-06 19:42 49.70355 -4.97614 34015 ft 471 kts 11°
2026-05-06 19:42 49.76735 -4.95259 34014 ft 471 kts 11°
2026-05-06 19:43 49.83117 -4.92885 34013 ft 471 kts 11°
2026-05-06 19:43 49.89499 -4.90504 34021 ft 472 kts 11°
2026-05-06 19:44 49.95880 -4.88120 34006 ft 472 kts 11°
2026-05-06 19:44 50.02227 -4.85742 34007 ft 472 kts 11°
2026-05-06 19:45 50.08617 -4.83342 34007 ft 472 kts 11°
2026-05-06 19:45 50.15003 -4.80937 34012 ft 472 kts 11°
2026-05-06 19:46 50.21386 -4.78526 34017 ft 471 kts 11°
2026-05-06 19:46 50.27763 -4.76111 34018 ft 471 kts 11°
2026-05-06 19:47 50.34132 -4.73692 34026 ft 471 kts 12°
2026-05-06 19:47 50.40454 -4.71284 34017 ft 469 kts 12°
2026-05-06 19:48 50.46801 -4.68860 34019 ft 469 kts 12°
2026-05-06 19:48 50.53136 -4.66435 34007 ft 469 kts 12°
2026-05-06 19:49 50.59476 -4.64000 34016 ft 469 kts 12°
2026-05-06 19:49 50.65816 -4.61559 34004 ft 469 kts 12°
2026-05-06 19:50 50.72168 -4.59107 34007 ft 469 kts 12°
2026-05-06 19:50 50.78465 -4.56668 34004 ft 469 kts 12°
2026-05-06 19:51 50.84817 -4.54202 34009 ft 470 kts 12°
2026-05-06 19:51 50.91174 -4.51727 34006 ft 470 kts 12°
2026-05-06 19:52 50.97519 -4.49249 34002 ft 469 kts 12°
2026-05-06 19:52 51.03867 -4.46763 33999 ft 469 kts 12°
2026-05-06 19:53 51.10166 -4.44290 34007 ft 469 kts 12°
2026-05-06 19:53 51.16540 -4.41780 34001 ft 469 kts 12°
2026-05-06 19:54 51.22847 -4.39289 34007 ft 469 kts 12°
2026-05-06 19:54 51.29173 -4.36783 34012 ft 467 kts 12°
2026-05-06 19:55 51.35468 -4.34283 34005 ft 465 kts 12°
2026-05-06 19:55 51.41727 -4.31589 33987 ft 467 kts 19°
2026-05-06 19:56 51.47404 -4.26471 34020 ft 471 kts 32°
2026-05-06 19:56 51.52890 -4.20712 34010 ft 469 kts 31°
2026-05-06 19:57 51.58386 -4.15288 34003 ft 465 kts 29°
2026-05-06 19:57 51.63980 -4.10034 34007 ft 466 kts 29°
2026-05-06 19:58 51.69596 -4.04746 34006 ft 467 kts 29°
2026-05-06 19:58 51.75203 -3.99409 34008 ft 467 kts 29°
2026-05-06 19:59 51.80751 -3.94092 33997 ft 461 kts 30°
2026-05-06 19:59 51.86217 -3.88835 34022 ft 461 kts 29°
2026-05-06 20:00 51.91747 -3.83504 34015 ft 464 kts 29°
2026-05-06 20:00 51.97300 -3.78135 34011 ft 465 kts 29°
2026-05-06 20:01 52.02846 -3.72758 34011 ft 461 kts 30°
2026-05-06 20:01 52.08314 -3.67439 34005 ft 457 kts 30°
2026-05-06 20:02 52.13793 -3.62097 34011 ft 459 kts 30°
2026-05-06 20:02 52.19274 -3.56737 34006 ft 459 kts 30°
2026-05-06 20:03 52.24719 -3.51396 34011 ft 458 kts 30°
2026-05-06 20:03 52.30153 -3.46049 34006 ft 453 kts 30°
2026-05-06 20:04 52.35579 -3.40697 34011 ft 457 kts 30°
2026-05-06 20:04 52.41032 -3.35302 34011 ft 459 kts 30°
2026-05-06 20:05 52.46503 -3.29871 34008 ft 460 kts 30°
2026-05-06 20:05 52.51907 -3.24491 34003 ft 453 kts 30°
2026-05-06 20:06 52.57287 -3.19122 34011 ft 452 kts 30°
2026-05-06 20:06 52.62960 -3.14766 34016 ft 451 kts 14°
2026-05-06 20:07 52.69157 -3.13308 34022 ft 450 kts
2026-05-06 20:07 52.72230 -3.12576 34000 ft 451 kts 14°
2026-05-06 20:07 52.75191 -3.10882 34014 ft 451 kts 24°
2026-05-06 20:08 52.80781 -3.06311 34006 ft 447 kts 25°
2026-05-06 20:08 52.86371 -3.01904 34021 ft 448 kts 24°
2026-05-06 20:09 52.92076 -2.97652 34019 ft 450 kts 20°
2026-05-06 20:09 52.97985 -2.94177 34033 ft 451 kts 18°
2026-05-06 20:10 53.03852 -2.90677 34013 ft 444 kts 19°
2026-05-06 20:10 53.09457 -2.86509 34005 ft 447 kts 32°
2026-05-06 20:11 53.14533 -2.80485 34015 ft 448 kts 33°
2026-05-06 20:11 53.19648 -2.74532 34012 ft 449 kts 33°
2026-05-06 20:12 53.24789 -2.68596 34035 ft 447 kts 33°
2026-05-06 20:12 53.29887 -2.62715 34031 ft 444 kts 32°
2026-05-06 20:13 53.34980 -2.56850 34046 ft 445 kts 32°
2026-05-06 20:13 53.40092 -2.50941 34049 ft 448 kts 32°
2026-05-06 20:14 53.45229 -2.44980 34032 ft 450 kts 32°
2026-05-06 20:14 53.50341 -2.38998 34030 ft 451 kts 33°
2026-05-06 20:15 53.54616 -2.33924 34027 ft 452 kts 33°
2026-05-06 20:15 53.59750 -2.27812 34029 ft 451 kts 33°
2026-05-06 20:16 53.64868 -2.21709 34031 ft 450 kts 33°
2026-05-06 20:16 53.69976 -2.15608 34032 ft 450 kts 33°
2026-05-06 20:17 53.75383 -2.10453 34045 ft 443 kts 19°
2026-05-06 20:17 53.81323 -2.08091 34057 ft 440 kts
2026-05-06 20:18 53.87398 -2.06344 34053 ft 444 kts
2026-05-06 20:18 53.93460 -2.04494 34041 ft 446 kts
2026-05-06 20:19 53.99523 -2.02263 34039 ft 446 kts 19°
2026-05-06 20:19 54.04904 -1.97054 34044 ft 449 kts 36°
2026-05-06 20:20 54.09420 -1.89662 34046 ft 450 kts 41°
2026-05-06 20:20 54.13853 -1.82190 34049 ft 450 kts 41°
2026-05-06 20:21 54.18322 -1.74710 34067 ft 450 kts 41°
2026-05-06 20:21 54.22800 -1.67232 34075 ft 450 kts 41°
2026-05-06 20:22 54.27284 -1.59729 34081 ft 449 kts 41°
2026-05-06 20:22 54.31765 -1.52209 34085 ft 453 kts 41°
2026-05-06 20:23 54.36283 -1.44603 34079 ft 457 kts 41°
2026-05-06 20:23 54.40782 -1.36998 34075 ft 456 kts 41°
2026-05-06 20:24 54.45286 -1.29357 34078 ft 455 kts 41°
2026-05-06 20:24 54.49787 -1.21700 34084 ft 455 kts 41°
2026-05-06 20:25 54.54270 -1.14049 34063 ft 452 kts 41°
2026-05-06 20:25 54.58737 -1.06401 34083 ft 452 kts 41°
2026-05-06 20:26 54.63214 -0.98714 34078 ft 456 kts 41°
2026-05-06 20:26 54.67725 -0.90940 34067 ft 459 kts 41°
2026-05-06 20:27 54.72239 -0.83133 34066 ft 460 kts 41°
2026-05-06 20:27 54.76762 -0.75283 34078 ft 460 kts 41°
2026-05-06 20:28 54.81235 -0.67492 34060 ft 457 kts 41°
2026-05-06 20:28 54.85715 -0.59668 34074 ft 457 kts 41°
2026-05-06 20:29 54.90201 -0.51807 34069 ft 458 kts 41°
2026-05-06 20:29 54.94684 -0.43924 34068 ft 458 kts 41°
2026-05-06 20:30 55.01392 -0.32077 34079 ft 458 kts 41°
2026-05-06 20:31 55.05863 -0.24148 34070 ft 458 kts 41°
2026-05-06 20:31 55.10313 -0.16229 34070 ft 457 kts 41°
2026-05-06 20:32 55.14733 -0.08337 34065 ft 457 kts 41°
2026-05-06 20:32 55.19175 -0.00380 34086 ft 457 kts 41°
2026-05-06 20:33 55.23632 0.07630 34086 ft 460 kts 42°
2026-05-06 20:33 55.28108 0.15701 34075 ft 463 kts 41°
2026-05-06 20:34 55.32599 0.23831 34078 ft 464 kts 41°
2026-05-06 20:34 55.37060 0.31936 34068 ft 463 kts 41°
2026-05-06 20:35 55.41531 0.40086 34064 ft 462 kts 41°
2026-05-06 20:35 55.45987 0.48237 34074 ft 462 kts 42°
2026-05-06 20:36 55.50440 0.56409 34092 ft 462 kts 42°
2026-05-06 20:36 55.54912 0.64642 34092 ft 466 kts 42°
2026-05-06 20:37 55.59378 0.72894 34086 ft 468 kts 42°
2026-05-06 20:37 55.63886 0.81255 34080 ft 470 kts 42°
2026-05-06 20:38 55.68401 0.89661 34075 ft 470 kts 42°
2026-05-06 20:38 55.72896 0.98061 34074 ft 469 kts 42°
2026-05-06 20:39 55.77354 1.06419 34078 ft 468 kts 42°
2026-05-06 20:39 55.81830 1.14839 34082 ft 470 kts 42°
2026-05-06 20:40 55.86333 1.23338 34086 ft 473 kts 42°
2026-05-06 20:40 55.90852 1.31902 34083 ft 476 kts 43°
2026-05-06 20:41 55.95386 1.40527 34077 ft 477 kts 43°
2026-05-06 20:41 55.99921 1.49186 34079 ft 476 kts 43°
2026-05-06 20:42 56.04432 1.57832 34080 ft 476 kts 43°
2026-05-06 20:42 56.08948 1.66517 34081 ft 476 kts 43°
2026-05-06 20:43 56.13455 1.75216 34076 ft 477 kts 43°
2026-05-06 20:43 56.17971 1.83964 34087 ft 478 kts 43°
2026-05-06 20:44 56.22473 1.92718 34084 ft 480 kts 43°
2026-05-06 20:44 56.26997 2.01549 34082 ft 480 kts 43°
2026-05-06 20:45 56.31526 2.10425 34088 ft 482 kts 43°
2026-05-06 20:45 56.36066 2.19352 34082 ft 482 kts 43°
2026-05-06 20:46 56.40572 2.28249 34082 ft 483 kts 43°
2026-05-06 20:46 56.45132 2.37284 34069 ft 484 kts 44°
2026-05-06 20:47 56.49643 2.46259 34072 ft 485 kts 44°
2026-05-06 20:47 56.54180 2.55320 34087 ft 486 kts 44°
2026-05-06 20:48 56.58722 2.64426 34084 ft 487 kts 44°
2026-05-06 20:48 56.63267 2.73571 34077 ft 488 kts 44°
2026-05-06 20:49 56.67816 2.82764 34076 ft 488 kts 44°
2026-05-06 20:49 56.72344 2.91947 34071 ft 487 kts 44°
2026-05-06 20:50 56.76877 3.01177 34076 ft 489 kts 45°
2026-05-06 20:50 56.81388 3.10399 34109 ft 491 kts 44°
2026-05-06 20:51 56.85940 3.19740 34083 ft 492 kts 44°
2026-05-06 20:51 56.90485 3.29107 34072 ft 492 kts 45°
2026-05-06 20:52 56.95028 3.38505 34074 ft 492 kts 45°
2026-05-06 20:52 56.99562 3.47919 34073 ft 492 kts 45°
2026-05-06 20:53 57.04395 3.56721 34079 ft 486 kts 32°
2026-05-06 20:53 57.10161 3.63018 34078 ft 482 kts 25°
2026-05-06 20:54 57.15972 3.69086 34072 ft 483 kts 25°
2026-05-06 20:54 57.21792 3.75311 34076 ft 484 kts 26°
2026-05-06 20:55 57.27610 3.81600 34071 ft 484 kts 26°
2026-05-06 20:55 57.33419 3.87903 34106 ft 484 kts 25°
2026-05-06 20:56 57.39250 3.94245 34083 ft 485 kts 25°
2026-05-06 20:56 57.45033 4.00557 34069 ft 486 kts 25°
2026-05-06 20:57 57.50868 4.06950 34072 ft 486 kts 25°
2026-05-06 20:57 57.56377 4.14357 34064 ft 496 kts 41°
2026-05-06 20:58 57.60422 4.24885 34078 ft 507 kts 59°
2026-05-06 20:58 57.63654 4.36521 34062 ft 508 kts 59°
2026-05-06 20:59 57.66928 4.48238 34073 ft 509 kts 59°
2026-05-06 20:59 57.70240 4.59951 34065 ft 509 kts 59°
2026-05-06 21:00 57.73564 4.71680 34065 ft 509 kts 59°
2026-05-06 21:00 57.76873 4.83413 34062 ft 509 kts 59°
2026-05-06 21:01 57.80162 4.95143 34060 ft 508 kts 60°
2026-05-06 21:01 57.83436 5.06890 34092 ft 509 kts 59°
2026-05-06 21:02 57.86712 5.18704 34066 ft 510 kts 59°
2026-05-06 21:02 57.89959 5.30470 34054 ft 511 kts 60°
2026-05-06 21:03 57.93234 5.42402 34050 ft 512 kts 60°
2026-05-06 21:03 57.95940 5.52310 34049 ft 512 kts 60°
2026-05-06 21:04 57.99187 5.64258 34044 ft 512 kts 60°
2026-05-06 21:04 58.02426 5.76236 34040 ft 512 kts 60°
2026-05-06 21:05 58.05648 5.88213 34040 ft 512 kts 60°
2026-05-06 21:05 58.08846 6.00165 34048 ft 514 kts 60°
2026-05-06 21:06 58.12069 6.12272 34045 ft 515 kts 60°
2026-05-06 21:06 58.15270 6.24364 34023 ft 513 kts 61°
2026-05-06 21:07 58.18457 6.36473 34024 ft 512 kts 61°
2026-05-06 21:07 58.21629 6.48587 34026 ft 513 kts 61°
2026-05-06 21:08 58.24791 6.60727 34029 ft 513 kts 61°
2026-05-06 21:08 58.27927 6.72828 34026 ft 513 kts 61°
2026-05-06 21:09 58.31067 6.85018 34029 ft 515 kts 62°
2026-05-06 21:09 58.34210 6.97280 34023 ft 516 kts 62°
2026-05-06 21:10 58.37346 7.09587 34029 ft 517 kts 62°
2026-05-06 21:10 58.40478 7.21947 34027 ft 517 kts 62°
2026-05-06 21:11 58.43592 7.34307 34025 ft 517 kts 62°
2026-05-06 21:11 58.46679 7.46624 34023 ft 517 kts 62°
2026-05-06 21:12 58.49779 7.59065 34018 ft 518 kts 63°
2026-05-06 21:12 58.52868 7.71527 34024 ft 519 kts 63°
2026-05-06 21:13 58.55950 7.84032 34013 ft 518 kts 64°
2026-05-06 21:13 58.59015 7.96532 34013 ft 518 kts 64°
2026-05-06 21:14 58.62044 8.08957 34013 ft 517 kts 64°
2026-05-06 21:14 58.65084 8.21492 34000 ft 517 kts 64°
2026-05-06 21:15 58.68111 8.34052 34003 ft 519 kts 64°
2026-05-06 21:15 58.71077 8.46429 33999 ft 515 kts 65°
2026-05-06 21:15 58.72555 8.52621 33791 ft 509 kts 65°
2026-05-06 21:16 58.74031 8.58824 33085 ft 507 kts 65°
2026-05-06 21:16 58.75492 8.64981 32437 ft 505 kts 64°
2026-05-06 21:16 58.76956 8.71169 31675 ft 506 kts 64°
2026-05-06 21:16 58.78411 8.77335 30938 ft 507 kts 64°
2026-05-06 21:17 58.79858 8.83483 30187 ft 508 kts 64°
2026-05-06 21:17 58.81315 8.89687 29241 ft 509 kts 65°
2026-05-06 21:17 58.82782 8.95905 28363 ft 508 kts 63°
2026-05-06 21:17 58.84528 9.01804 27453 ft 505 kts 52°
2026-05-06 21:18 58.86727 9.07052 26567 ft 501 kts 44°
2026-05-06 21:18 58.89265 9.11585 25902 ft 491 kts 34°
2026-05-06 21:18 58.91969 9.15554 25238 ft 485 kts 33°
2026-05-06 21:18 58.94630 9.19514 24573 ft 480 kts 34°
2026-05-06 21:19 58.97261 9.23506 23921 ft 476 kts 34°
2026-05-06 21:19 58.99834 9.27463 23260 ft 471 kts 34°
2026-05-06 21:19 59.02393 9.31426 22499 ft 468 kts 34°
2026-05-06 21:19 59.04890 9.35306 21858 ft 461 kts 34°
2026-05-06 21:20 59.07407 9.39222 21242 ft 454 kts 34°
2026-05-06 21:20 59.09829 9.42992 20631 ft 449 kts 34°
2026-05-06 21:20 59.12260 9.46779 20002 ft 444 kts 34°
2026-05-06 21:20 59.14670 9.50536 19378 ft 440 kts 34°
2026-05-06 21:21 59.17045 9.54249 18919 ft 432 kts 34°
2026-05-06 21:21 59.19354 9.57829 18770 ft 416 kts 32°
2026-05-06 21:21 59.21681 9.60965 18696 ft 397 kts 28°
2026-05-06 21:21 59.23945 9.63784 18531 ft 385 kts 27°
2026-05-06 21:22 59.26179 9.66544 18393 ft 375 kts 26°
2026-05-06 21:22 59.28346 9.69271 18202 ft 366 kts 27°
2026-05-06 21:22 59.30454 9.71972 18031 ft 357 kts 27°
2026-05-06 21:22 59.32504 9.74620 17866 ft 348 kts 28°
2026-05-06 21:23 59.34463 9.77386 17521 ft 348 kts 33°
2026-05-06 21:23 59.36343 9.80371 17178 ft 346 kts 34°
2026-05-06 21:23 59.38184 9.83377 16844 ft 343 kts 35°
2026-05-06 21:23 59.40011 9.86361 16511 ft 340 kts 34°
2026-05-06 21:24 59.41831 9.89317 16167 ft 338 kts 35°
2026-05-06 21:24 59.43623 9.92211 15843 ft 336 kts 34°
2026-05-06 21:24 59.45428 9.95117 15513 ft 334 kts 34°
2026-05-06 21:24 59.47218 9.97994 15187 ft 332 kts 35°
2026-05-06 21:25 59.48999 10.00859 14863 ft 330 kts 35°
2026-05-06 21:25 59.50772 10.03710 14572 ft 328 kts 35°
2026-05-06 21:25 59.52537 10.06552 14237 ft 327 kts 35°
2026-05-06 21:25 59.54294 10.09383 13905 ft 325 kts 35°
2026-05-06 21:26 59.56044 10.12207 13559 ft 324 kts 35°
2026-05-06 21:26 59.57786 10.15022 13206 ft 323 kts 36°
2026-05-06 21:26 59.59519 10.17827 12858 ft 321 kts 36°
2026-05-06 21:26 59.61240 10.20618 12542 ft 318 kts 36°
2026-05-06 21:27 59.62940 10.23376 12218 ft 316 kts 36°
2026-05-06 21:27 59.64633 10.26123 11930 ft 313 kts 36°
2026-05-06 21:27 59.66317 10.28857 11617 ft 312 kts 36°
2026-05-06 21:27 59.67962 10.31536 11418 ft 305 kts 37°
2026-05-06 21:28 59.69581 10.34172 11295 ft 297 kts 37°
2026-05-06 21:28 59.71156 10.36742 11169 ft 289 kts 36°
2026-05-06 21:28 59.72688 10.39243 11062 ft 282 kts 37°
2026-05-06 21:28 59.74165 10.41659 10923 ft 275 kts 37°
2026-05-06 21:29 59.75640 10.44081 10601 ft 276 kts 37°
2026-05-06 21:29 59.77114 10.46514 10325 ft 276 kts 37°
2026-05-06 21:29 59.78596 10.48961 9986 ft 277 kts 38°
2026-05-06 21:29 59.80083 10.51422 9645 ft 279 kts 38°
2026-05-06 21:30 59.81577 10.53899 9281 ft 280 kts 38°
2026-05-06 21:30 59.83074 10.56382 8933 ft 280 kts 38°
2026-05-06 21:30 59.84571 10.58871 8582 ft 280 kts 38°
2026-05-06 21:30 59.86070 10.61362 8265 ft 280 kts 38°
2026-05-06 21:31 59.87562 10.63848 7925 ft 280 kts 39°
2026-05-06 21:31 59.89053 10.66333 7598 ft 280 kts 39°
2026-05-06 21:31 59.90545 10.68824 7286 ft 278 kts 39°
2026-05-06 21:31 59.92028 10.71300 6971 ft 278 kts 39°
2026-05-06 21:32 59.93508 10.73775 6638 ft 278 kts 39°
2026-05-06 21:32 59.96438 10.78694 5972 ft 277 kts 41°
2026-05-06 21:32 59.97611 10.81680 5596 ft 272 kts 70°
2026-05-06 21:33 59.97999 10.85278 5356 ft 260 kts 79°
2026-05-06 21:33 59.98391 10.88692 5206 ft 242 kts 76°
2026-05-06 21:33 59.98793 10.91869 5078 ft 229 kts 76°
2026-05-06 21:33 59.99192 10.94860 4969 ft 217 kts 69°
2026-05-06 21:34 60.00062 10.97117 4806 ft 203 kts 25°
2026-05-06 21:34 60.01370 10.97693 4762 ft 186 kts
2026-05-06 21:34 60.02571 10.98241 4573 ft 179 kts 14°
2026-05-06 21:34 60.03765 10.98905 4300 ft 177 kts 14°
2026-05-06 21:35 60.04941 10.99549 4079 ft 175 kts 14°
2026-05-06 21:35 60.06128 11.00221 4056 ft 178 kts 15°
2026-05-06 21:35 60.07313 11.00905 4008 ft 176 kts 15°
2026-05-06 21:35 60.08476 11.01578 3957 ft 171 kts 15°
2026-05-06 21:36 60.09612 11.02235 3684 ft 169 kts 15°
2026-05-06 21:36 60.10725 11.02879 3390 ft 162 kts 15°
2026-05-06 21:36 60.11785 11.03492 3046 ft 159 kts 14°
2026-05-06 21:36 60.12841 11.04103 2690 ft 157 kts 14°
2026-05-06 21:37 60.13894 11.04712 2237 ft 161 kts 14°
2026-05-06 21:37 60.15017 11.05346 1661 ft 171 kts 13°
2026-05-06 21:37 60.16152 11.05959 1287 ft 164 kts 14°
2026-05-06 21:37 60.17221 11.06619 959 ft 156 kts 15°
2026-05-06 21:38 60.18249 11.07229 755 ft 152 kts 15°
2026-05-06 21:38 60.19229 11.07787 671 ft 136 kts 14°
2026-05-06 21:38 60.19852 11.08137 672 ft 40 kts 15°
2026-05-06 21:38 60.19940 11.08229 674 ft 11 kts 61°
2026-05-06 21:39 60.19916 11.08361 672 ft 11 kts 131°
2026-05-06 21:39 60.19887 11.08504 676 ft 11 kts 108°
2026-05-06 21:39 60.19863 11.08660 677 ft 12 kts 106°
2026-05-06 21:39 60.19839 11.08825 676 ft 13 kts 106°
2026-05-06 21:40 60.19814 11.08997 680 ft 13 kts 106°
2026-05-06 21:40 60.19790 11.09164 682 ft 12 kts 106°
2026-05-06 21:40 60.19766 11.09305 679 ft 10 kts 127°
2026-05-06 21:40 60.19703 11.09337 682 ft 10 kts 176°
2026-05-06 21:41 60.19643 11.09310 684 ft 7 kts 196°
2026-05-06 21:41 60.19600 11.09285 684 ft 3 kts 196°
2026-05-06 21:41 60.19587 11.09277 684 ft 0 kts 196°